CEB586 RPVM-RPLL

Flight info

Callsign CEB586
Flight time 1h 15m
Altitude 34000
Route MULOP1Q MULOP W11 CONDE CONDE3R
Aircraft A20N/M-SDE2E3FGHIRWXY/LB1

Departure

Time 2026-05-04 13:21
Airport Mactan Cebu International Airport (RPVM)

Arrival

Time 2026-05-04 14:36
Airport Ninoy Aquino International Airport (RPLL)
Time Latitude Longitude Altitude Speed Heading
2026-05-04 13:01 10.31596 123.98020 36 ft 0 kts 314°
2026-05-04 13:09 10.31588 123.98029 36 ft 2 kts 314°
2026-05-04 13:09 10.31577 123.98039 36 ft 2 kts 314°
2026-05-04 13:09 10.31567 123.98050 36 ft 2 kts 314°
2026-05-04 13:10 10.31556 123.98061 36 ft 2 kts 314°
2026-05-04 13:10 10.31546 123.98072 36 ft 1 kts 314°
2026-05-04 13:10 10.31542 123.98076 36 ft 1 kts 289°
2026-05-04 13:10 10.31542 123.98083 36 ft 0 kts 232°
2026-05-04 13:11 10.31546 123.98086 36 ft 1 kts 222°
2026-05-04 13:11 10.31548 123.98088 36 ft 0 kts 224°
2026-05-04 13:13 10.31545 123.98086 36 ft 1 kts 225°
2026-05-04 13:14 10.31540 123.98080 36 ft 2 kts 226°
2026-05-04 13:14 10.31522 123.98061 36 ft 5 kts 226°
2026-05-04 13:14 10.31491 123.98029 36 ft 7 kts 225°
2026-05-04 13:14 10.31451 123.97988 36 ft 8 kts 226°
2026-05-04 13:15 10.31408 123.97942 36 ft 8 kts 226°
2026-05-04 13:15 10.31361 123.97902 36 ft 9 kts 204°
2026-05-04 13:15 10.31300 123.97922 36 ft 10 kts 135°
2026-05-04 13:15 10.31246 123.97975 36 ft 11 kts 146°
2026-05-04 13:16 10.31177 123.97957 36 ft 11 kts 227°
2026-05-04 13:16 10.31119 123.97897 36 ft 12 kts 225°
2026-05-04 13:16 10.31055 123.97834 36 ft 13 kts 224°
2026-05-04 13:16 10.30988 123.97765 36 ft 13 kts 225°
2026-05-04 13:17 10.30917 123.97694 36 ft 14 kts 225°
2026-05-04 13:17 10.30844 123.97620 36 ft 15 kts 225°
2026-05-04 13:17 10.30768 123.97543 36 ft 15 kts 225°
2026-05-04 13:17 10.30689 123.97465 36 ft 15 kts 225°
2026-05-04 13:18 10.30630 123.97405 36 ft 10 kts 225°
2026-05-04 13:18 10.30573 123.97349 36 ft 11 kts 225°
2026-05-04 13:18 10.30511 123.97287 36 ft 12 kts 224°
2026-05-04 13:18 10.30446 123.97221 36 ft 13 kts 224°
2026-05-04 13:19 10.30392 123.97169 36 ft 9 kts 214°
2026-05-04 13:19 10.30331 123.97178 36 ft 6 kts 135°
2026-05-04 13:19 10.30309 123.97203 36 ft 4 kts 117°
2026-05-04 13:19 10.30318 123.97234 36 ft 4 kts 44°
2026-05-04 13:20 10.30319 123.97234 36 ft 0 kts 44°
2026-05-04 13:20 10.30483 123.97399 36 ft 70 kts 45°
2026-05-04 13:20 10.30991 123.97907 36 ft 132 kts 45°
2026-05-04 13:21 10.31731 123.98640 365 ft 150 kts 44°
2026-05-04 13:21 10.32445 123.99342 985 ft 144 kts 45°
2026-05-04 13:21 10.33159 124.00070 1453 ft 146 kts 46°
2026-05-04 13:21 10.33874 124.00803 1912 ft 150 kts 46°
2026-05-04 13:22 10.34640 124.01588 2236 ft 165 kts 46°
2026-05-04 13:22 10.35583 124.02357 2554 ft 184 kts 22°
2026-05-04 13:22 10.36905 124.02353 2871 ft 206 kts 344°
2026-05-04 13:22 10.38311 124.01798 3182 ft 229 kts 341°
2026-05-04 13:23 10.39878 124.01183 3609 ft 248 kts 341°
2026-05-04 13:23 10.41546 124.00563 4080 ft 265 kts 342°
2026-05-04 13:23 10.43325 123.99926 4778 ft 273 kts 343°
2026-05-04 13:23 10.45125 123.99295 5614 ft 275 kts 343°
2026-05-04 13:24 10.46927 123.98673 6417 ft 278 kts 343°
2026-05-04 13:24 10.48769 123.98041 7198 ft 282 kts 343°
2026-05-04 13:24 10.50637 123.97405 7957 ft 285 kts 343°
2026-05-04 13:25 10.54437 123.96108 9396 ft 292 kts 342°
2026-05-04 13:25 10.56366 123.95448 10076 ft 295 kts 342°
2026-05-04 13:25 10.58341 123.94775 10586 ft 305 kts 342°
2026-05-04 13:25 10.60402 123.94072 10885 ft 322 kts 343°
2026-05-04 13:26 10.62610 123.93316 11172 ft 339 kts 341°
2026-05-04 13:26 10.64774 123.92242 11423 ft 357 kts 328°
2026-05-04 13:26 10.66743 123.90611 11684 ft 374 kts 315°
2026-05-04 13:26 10.68500 123.88606 12092 ft 383 kts 311°
2026-05-04 13:27 10.70239 123.86514 12639 ft 387 kts 311°
2026-05-04 13:27 10.71967 123.84430 13170 ft 391 kts 311°
2026-05-04 13:27 10.73739 123.82310 13693 ft 395 kts 311°
2026-05-04 13:27 10.75535 123.80177 14205 ft 398 kts 312°
2026-05-04 13:28 10.77333 123.78046 14701 ft 402 kts 312°
2026-05-04 13:28 10.79178 123.75869 15201 ft 405 kts 312°
2026-05-04 13:28 10.81011 123.73704 15689 ft 408 kts 312°
2026-05-04 13:28 10.82890 123.71488 16154 ft 411 kts 312°
2026-05-04 13:29 10.84760 123.69281 16594 ft 415 kts 312°
2026-05-04 13:29 10.86651 123.67047 17033 ft 418 kts 312°
2026-05-04 13:29 10.88536 123.64816 17471 ft 420 kts 312°
2026-05-04 13:29 10.90460 123.62539 17899 ft 423 kts 312°
2026-05-04 13:30 10.92379 123.60266 18331 ft 426 kts 312°
2026-05-04 13:30 10.94304 123.57986 18761 ft 428 kts 312°
2026-05-04 13:30 10.96253 123.55678 19168 ft 430 kts 312°
2026-05-04 13:30 10.98222 123.53377 19578 ft 432 kts 314°
2026-05-04 13:31 11.00344 123.51223 19991 ft 433 kts 319°
2026-05-04 13:31 11.02679 123.49242 20405 ft 434 kts 324°
2026-05-04 13:31 11.05132 123.47460 20806 ft 436 kts 327°
2026-05-04 13:31 11.07638 123.45713 21201 ft 438 kts 327°
2026-05-04 13:32 11.10167 123.43964 21596 ft 440 kts 327°
2026-05-04 13:32 11.12715 123.42197 21983 ft 442 kts 327°
2026-05-04 13:32 11.15272 123.40421 22375 ft 444 kts 327°
2026-05-04 13:32 11.17818 123.38647 22757 ft 447 kts 327°
2026-05-04 13:33 11.20390 123.36853 23112 ft 449 kts 327°
2026-05-04 13:33 11.22964 123.35055 23458 ft 452 kts 327°
2026-05-04 13:33 11.25586 123.33223 23802 ft 455 kts 327°
2026-05-04 13:33 11.28241 123.31367 24160 ft 457 kts 327°
2026-05-04 13:34 11.30862 123.29533 24495 ft 460 kts 327°
2026-05-04 13:34 11.33501 123.27686 24801 ft 463 kts 326°
2026-05-04 13:34 11.36189 123.25806 25120 ft 466 kts 326°
2026-05-04 13:34 11.38865 123.23931 25450 ft 468 kts 326°
2026-05-04 13:35 11.41568 123.22038 25755 ft 470 kts 326°
2026-05-04 13:35 11.47072 123.18182 26358 ft 475 kts 326°
2026-05-04 13:35 11.49777 123.16286 26654 ft 477 kts 326°
2026-05-04 13:36 11.52554 123.14340 26951 ft 479 kts 326°
2026-05-04 13:36 11.55309 123.12409 27223 ft 481 kts 326°
2026-05-04 13:36 11.58072 123.10471 27481 ft 483 kts 326°
2026-05-04 13:36 11.60838 123.08531 27757 ft 484 kts 326°
2026-05-04 13:37 11.63637 123.06567 28108 ft 484 kts 326°
2026-05-04 13:37 11.66390 123.04635 28440 ft 483 kts 326°
2026-05-04 13:37 11.69181 123.02675 28751 ft 483 kts 326°
2026-05-04 13:37 11.71036 123.01372 28951 ft 483 kts 326°
2026-05-04 13:38 11.74727 122.98780 29399 ft 482 kts 326°
2026-05-04 13:38 11.77506 122.96828 29745 ft 480 kts 326°
2026-05-04 13:38 11.80238 122.94909 30087 ft 479 kts 325°
2026-05-04 13:38 11.83000 122.92966 30422 ft 477 kts 325°
2026-05-04 13:39 11.85715 122.91058 30765 ft 475 kts 325°
2026-05-04 13:39 11.88449 122.89134 31100 ft 473 kts 325°
2026-05-04 13:39 11.91170 122.87220 31413 ft 472 kts 325°
2026-05-04 13:39 11.93873 122.85318 31717 ft 470 kts 325°
2026-05-04 13:40 11.96545 122.83437 32033 ft 469 kts 325°
2026-05-04 13:40 11.99268 122.81519 32320 ft 468 kts 325°
2026-05-04 13:40 12.01954 122.79628 32532 ft 469 kts 325°
2026-05-04 13:40 12.04639 122.77736 32758 ft 470 kts 325°
2026-05-04 13:41 12.07321 122.75845 32991 ft 470 kts 325°
2026-05-04 13:41 12.10030 122.73936 33222 ft 471 kts 325°
2026-05-04 13:41 12.12711 122.72045 33455 ft 471 kts 325°
2026-05-04 13:42 12.18132 122.68221 33899 ft 472 kts 325°
2026-05-04 13:42 12.20839 122.66312 33913 ft 472 kts 324°
2026-05-04 13:42 12.26231 122.62505 33916 ft 472 kts 324°
2026-05-04 13:43 12.31619 122.58696 33920 ft 472 kts 324°
2026-05-04 13:43 12.37030 122.54871 33919 ft 471 kts 324°
2026-05-04 13:44 12.42448 122.51052 33913 ft 472 kts 324°
2026-05-04 13:44 12.47853 122.47236 33909 ft 472 kts 324°
2026-05-04 13:45 12.53255 122.43418 33908 ft 472 kts 324°
2026-05-04 13:45 12.58645 122.39604 33911 ft 471 kts 324°
2026-05-04 13:46 12.64043 122.35782 33911 ft 470 kts 324°
2026-05-04 13:46 12.69419 122.31972 33914 ft 470 kts 324°
2026-05-04 13:47 12.74786 122.28167 33909 ft 470 kts 324°
2026-05-04 13:47 12.80154 122.24358 33906 ft 469 kts 324°
2026-05-04 13:48 12.85529 122.20544 33901 ft 468 kts 324°
2026-05-04 13:48 12.90872 122.16750 33901 ft 468 kts 324°
2026-05-04 13:49 12.96221 122.12949 33903 ft 468 kts 324°
2026-05-04 13:49 13.01596 122.09128 33902 ft 468 kts 324°
2026-05-04 13:50 13.04254 122.07238 33634 ft 469 kts 324°
2026-05-04 13:50 13.06942 122.05325 32974 ft 466 kts 324°
2026-05-04 13:50 13.09610 122.03426 32282 ft 464 kts 324°
2026-05-04 13:50 13.12241 122.01553 31550 ft 463 kts 324°
2026-05-04 13:51 13.14906 121.99654 30754 ft 465 kts 324°
2026-05-04 13:51 13.17555 121.97765 29928 ft 467 kts 325°
2026-05-04 13:51 13.20240 121.95852 29061 ft 471 kts 325°
2026-05-04 13:51 13.22918 121.93943 28184 ft 475 kts 325°
2026-05-04 13:52 13.28382 121.90049 26753 ft 473 kts 325°
2026-05-04 13:52 13.31048 121.88149 26133 ft 470 kts 326°
2026-05-04 13:52 13.33758 121.86215 25537 ft 467 kts 326°
2026-05-04 13:53 13.36401 121.84331 24975 ft 463 kts 326°
2026-05-04 13:53 13.39043 121.82445 24422 ft 459 kts 326°
2026-05-04 13:53 13.41621 121.80605 23884 ft 455 kts 326°
2026-05-04 13:54 13.46791 121.76910 22800 ft 447 kts 326°
2026-05-04 13:54 13.49339 121.75088 22262 ft 443 kts 326°
2026-05-04 13:54 13.54330 121.71517 21469 ft 428 kts 326°
2026-05-04 13:55 13.56754 121.69784 21226 ft 417 kts 326°
2026-05-04 13:55 13.61382 121.66470 20797 ft 395 kts 326°
2026-05-04 13:55 13.63615 121.64880 20496 ft 388 kts 326°
2026-05-04 13:56 13.65811 121.63317 20191 ft 381 kts 326°
2026-05-04 13:56 13.67982 121.61768 19891 ft 374 kts 326°
2026-05-04 13:56 13.72189 121.58760 19292 ft 362 kts 326°
2026-05-04 13:57 13.74234 121.57295 19009 ft 356 kts 327°
2026-05-04 13:57 13.76254 121.55846 18776 ft 349 kts 327°
2026-05-04 13:58 13.82164 121.51610 17915 ft 342 kts 327°
2026-05-04 13:58 13.86070 121.48809 17133 ft 339 kts 327°
2026-05-04 13:58 13.88002 121.47423 16761 ft 337 kts 327°
2026-05-04 13:59 13.89927 121.46040 16393 ft 335 kts 327°
2026-05-04 13:59 13.91833 121.44672 16038 ft 332 kts 327°
2026-05-04 13:59 13.95594 121.41969 15319 ft 328 kts 327°
2026-05-04 14:00 13.97465 121.40624 14955 ft 326 kts 327°
2026-05-04 14:00 14.01149 121.37978 14222 ft 322 kts 327°
2026-05-04 14:00 14.02985 121.36657 13853 ft 320 kts 327°
2026-05-04 14:01 14.04815 121.35341 13484 ft 318 kts 327°
2026-05-04 14:01 14.06624 121.34039 13116 ft 316 kts 327°
2026-05-04 14:01 14.10206 121.31461 12402 ft 312 kts 327°
2026-05-04 14:02 14.11991 121.30177 12046 ft 309 kts 327°
2026-05-04 14:02 14.13749 121.28911 11689 ft 307 kts 327°
2026-05-04 14:02 14.15498 121.27653 11334 ft 305 kts 327°
2026-05-04 14:02 14.17221 121.26411 10983 ft 303 kts 328°
2026-05-04 14:03 14.18951 121.25165 10626 ft 301 kts 328°
2026-05-04 14:03 14.20656 121.23935 10283 ft 299 kts 328°
2026-05-04 14:03 14.22365 121.22704 9926 ft 297 kts 328°
2026-05-04 14:03 14.24064 121.21478 9556 ft 295 kts 328°
2026-05-04 14:04 14.27413 121.19067 8871 ft 291 kts 328°
2026-05-04 14:04 14.29041 121.17882 8507 ft 289 kts 324°
2026-05-04 14:04 14.30376 121.16290 8103 ft 295 kts 299°
2026-05-04 14:05 14.30572 121.12175 7398 ft 299 kts 252°
2026-05-04 14:05 14.29835 121.10187 7048 ft 297 kts 248°
2026-05-04 14:05 14.29028 121.08225 6714 ft 294 kts 248°
2026-05-04 14:06 14.28230 121.06302 6372 ft 292 kts 248°
2026-05-04 14:06 14.27424 121.04394 6029 ft 290 kts 247°
2026-05-04 14:06 14.26621 121.02501 5678 ft 289 kts 247°
2026-05-04 14:06 14.25815 121.00586 5326 ft 288 kts 247°
2026-05-04 14:07 14.25027 120.98697 5059 ft 285 kts 247°
2026-05-04 14:07 14.24249 120.96815 5027 ft 287 kts 247°
2026-05-04 14:07 14.23468 120.94922 5027 ft 286 kts 247°
2026-05-04 14:07 14.22698 120.93053 5029 ft 286 kts 247°
2026-05-04 14:08 14.21913 120.91147 5027 ft 286 kts 247°
2026-05-04 14:08 14.21143 120.89275 5023 ft 286 kts 247°
2026-05-04 14:08 14.20364 120.87378 5018 ft 286 kts 247°
2026-05-04 14:08 14.19593 120.85491 5014 ft 286 kts 247°
2026-05-04 14:09 14.18167 120.81675 4994 ft 287 kts 262°
2026-05-04 14:09 14.18265 120.79649 4994 ft 284 kts 289°
2026-05-04 14:10 14.20528 120.76401 4994 ft 278 kts 320°
2026-05-04 14:10 14.22096 120.75246 4997 ft 276 kts 332°
2026-05-04 14:10 14.23734 120.74295 4992 ft 264 kts 334°
2026-05-04 14:10 14.25307 120.73409 4989 ft 253 kts 334°
2026-05-04 14:11 14.26856 120.72526 4990 ft 253 kts 334°
2026-05-04 14:11 14.29954 120.70731 4995 ft 253 kts 336°
2026-05-04 14:11 14.31627 120.70315 4983 ft 247 kts
2026-05-04 14:12 14.33249 120.70796 4914 ft 243 kts 33°
2026-05-04 14:12 14.34479 120.71967 4713 ft 239 kts 59°
2026-05-04 14:12 14.35997 120.74971 4329 ft 234 kts 64°
2026-05-04 14:13 14.36738 120.76452 4097 ft 229 kts 63°
2026-05-04 14:13 14.37484 120.77876 3921 ft 224 kts 62°
2026-05-04 14:13 14.38240 120.79270 3885 ft 215 kts 61°
2026-05-04 14:13 14.38957 120.80569 3867 ft 201 kts 61°
2026-05-04 14:14 14.39630 120.81775 3823 ft 187 kts 61°
2026-05-04 14:14 14.40875 120.84000 3465 ft 171 kts 61°
2026-05-04 14:14 14.41452 120.85032 3231 ft 158 kts 62°
2026-05-04 14:15 14.42505 120.86916 2800 ft 151 kts 62°
2026-05-04 14:15 14.43550 120.88792 2413 ft 150 kts 62°
2026-05-04 14:16 14.44581 120.90646 2033 ft 149 kts 61°
2026-05-04 14:16 14.45098 120.91575 1850 ft 149 kts 61°
2026-05-04 14:17 14.46125 120.93423 1482 ft 148 kts 62°
2026-05-04 14:17 14.46632 120.94335 1297 ft 147 kts 62°
2026-05-04 14:17 14.47680 120.96238 1484 ft 157 kts 61°
2026-05-04 14:18 14.48194 120.97160 2119 ft 148 kts 61°
2026-05-04 14:18 14.49222 120.98995 3163 ft 149 kts 62°
2026-05-04 14:19 14.50332 121.01004 3904 ft 181 kts 61°
2026-05-04 14:19 14.50993 121.02220 4011 ft 211 kts 61°
2026-05-04 14:19 14.51722 121.03599 3961 ft 218 kts 66°
2026-05-04 14:19 14.51985 121.05135 3981 ft 222 kts 97°
2026-05-04 14:20 14.51366 121.06580 4015 ft 230 kts 130°
2026-05-04 14:20 14.49970 121.07472 4473 ft 246 kts 165°
2026-05-04 14:20 14.48294 121.07435 5237 ft 249 kts 199°
2026-05-04 14:21 14.46340 121.04715 5989 ft 249 kts 274°
2026-05-04 14:21 14.46829 121.03060 6009 ft 242 kts 310°
2026-05-04 14:21 14.48109 121.02007 6012 ft 235 kts 342°
2026-05-04 14:21 14.49705 121.01828 6013 ft 230 kts 12°
2026-05-04 14:22 14.51266 121.02227 6016 ft 229 kts 19°
2026-05-04 14:22 14.52632 121.03024 6009 ft 227 kts 41°
2026-05-04 14:22 14.53811 121.04128 6010 ft 226 kts 43°
2026-05-04 14:22 14.54961 121.05221 6010 ft 226 kts 42°
2026-05-04 14:23 14.56723 121.07836 6003 ft 230 kts 83°
2026-05-04 14:23 14.56499 121.09475 6024 ft 236 kts 112°
2026-05-04 14:23 14.55497 121.10799 6027 ft 242 kts 142°
2026-05-04 14:24 14.53916 121.11433 5993 ft 248 kts 175°
2026-05-04 14:24 14.52220 121.11094 6000 ft 251 kts 209°
2026-05-04 14:24 14.50956 121.09862 6001 ft 251 kts 243°
2026-05-04 14:24 14.50539 121.08154 6006 ft 247 kts 277°
2026-05-04 14:25 14.51014 121.06482 6018 ft 243 kts 298°
2026-05-04 14:25 14.51431 121.03108 5995 ft 251 kts 245°
2026-05-04 14:25 14.50361 121.01742 6008 ft 240 kts 221°
2026-05-04 14:26 14.49105 121.00643 5880 ft 232 kts 219°
2026-05-04 14:26 14.47888 120.99600 5732 ft 224 kts 219°
2026-05-04 14:26 14.46711 120.98590 5584 ft 216 kts 219°
2026-05-04 14:26 14.45571 120.97604 5398 ft 212 kts 219°
2026-05-04 14:27 14.44444 120.96626 5150 ft 210 kts 219°
2026-05-04 14:27 14.43321 120.95648 4903 ft 208 kts 219°
2026-05-04 14:27 14.42214 120.94685 4660 ft 208 kts 219°
2026-05-04 14:27 14.41113 120.93717 4415 ft 207 kts 219°
2026-05-04 14:28 14.40017 120.92764 4172 ft 206 kts 219°
2026-05-04 14:28 14.38925 120.91817 3936 ft 205 kts 218°
2026-05-04 14:28 14.37837 120.90869 3680 ft 204 kts 218°
2026-05-04 14:28 14.36759 120.89930 3432 ft 203 kts 218°
2026-05-04 14:29 14.34723 120.87941 2916 ft 203 kts 238°
2026-05-04 14:29 14.34235 120.85159 2407 ft 201 kts 285°
2026-05-04 14:30 14.34766 120.83834 2150 ft 197 kts 308°
2026-05-04 14:30 14.35688 120.82832 1898 ft 192 kts 328°
2026-05-04 14:30 14.38028 120.82091 1607 ft 164 kts
2026-05-04 14:31 14.39094 120.82293 1501 ft 146 kts 27°
2026-05-04 14:31 14.40570 120.83697 1516 ft 146 kts 55°
2026-05-04 14:32 14.41686 120.85465 1507 ft 147 kts 60°
2026-05-04 14:32 14.42209 120.86365 1505 ft 147 kts 61°
2026-05-04 14:32 14.42727 120.87281 1512 ft 147 kts 61°
2026-05-04 14:32 14.43240 120.88200 1513 ft 147 kts 62°
2026-05-04 14:33 14.43750 120.89120 1512 ft 147 kts 61°
2026-05-04 14:33 14.44259 120.90040 1507 ft 147 kts 62°
2026-05-04 14:33 14.44762 120.90950 1509 ft 147 kts 61°
2026-05-04 14:33 14.45273 120.91875 1510 ft 147 kts 62°
2026-05-04 14:34 14.45780 120.92793 1513 ft 147 kts 61°
2026-05-04 14:34 14.46293 120.93720 1410 ft 147 kts 61°
2026-05-04 14:34 14.46797 120.94628 1228 ft 147 kts 63°
2026-05-04 14:34 14.47305 120.95547 1047 ft 146 kts 62°
2026-05-04 14:35 14.47813 120.96458 866 ft 146 kts 61°
2026-05-04 14:35 14.48321 120.97366 678 ft 146 kts 62°
2026-05-04 14:35 14.48823 120.98281 499 ft 145 kts 63°
2026-05-04 14:35 14.49316 120.99176 322 ft 145 kts 61°
2026-05-04 14:36 14.49823 121.00081 133 ft 145 kts 62°
2026-05-04 14:36 14.50296 121.00935 82 ft 115 kts 63°
2026-05-04 14:36 14.50588 121.01454 82 ft 42 kts 61°
2026-05-04 14:36 14.50693 121.01644 82 ft 23 kts 53°
2026-05-04 14:37 14.50805 121.01749 82 ft 16 kts 38°
2026-05-04 14:37 14.50881 121.01786 82 ft 9 kts 346°
2026-05-04 14:37 14.50912 121.01763 82 ft 0 kts 316°
2026-05-04 14:37 14.50916 121.01759 82 ft 1 kts 316°
2026-05-04 14:38 14.50929 121.01747 82 ft 3 kts 316°
2026-05-04 14:38 14.50949 121.01727 82 ft 4 kts 315°
2026-05-04 14:38 14.50975 121.01699 82 ft 6 kts 314°
2026-05-04 14:38 14.51009 121.01664 82 ft 7 kts 315°
2026-05-04 14:39 14.51050 121.01622 82 ft 8 kts 315°
2026-05-04 14:39 14.51097 121.01574 82 ft 10 kts 315°
2026-05-04 14:39 14.51150 121.01518 82 ft 11 kts 315°
2026-05-04 14:40 14.51271 121.01430 82 ft 11 kts 18°
2026-05-04 14:40 14.51331 121.01489 82 ft 12 kts 52°
2026-05-04 14:40 14.51387 121.01551 82 ft 12 kts 45°
2026-05-04 14:40 14.51457 121.01585 82 ft 11 kts 336°
2026-05-04 14:41 14.51517 121.01524 82 ft 12 kts 315°
2026-05-04 14:41 14.51578 121.01463 82 ft 12 kts 316°
2026-05-04 14:41 14.51696 121.01341 82 ft 11 kts 315°
2026-05-04 14:42 14.51804 121.01228 82 ft 6 kts 314°
2026-05-04 14:42 14.51846 121.01221 82 ft 6 kts 34°
2026-05-04 14:42 14.51878 121.01254 82 ft 6 kts 46°
2026-05-04 14:43 14.51890 121.01266 82 ft 0 kts 45°
2026-05-04 14:43 14.51893 121.01269 82 ft 0 kts 46°
2026-05-04 14:43 14.51897 121.01273 82 ft 0 kts 46°
2026-05-04 14:43 14.51897 121.01274 82 ft 0 kts 46°